Location: ?
(35.3544°N, 139.4507°E)
Time: 00:31:03
(UTC+00:00)

Cosmos 2263 Rocket - Pass Details

Date: 03 August 2024
Orbit: 821 x 849 km, 71.0° (Epoch: 18 September)

Event Time Altitude Azimuth Distance (km) Brightness Sun altitude
Rises 14:37:34 0° 348° (NNW) 3,392 6.3 -37.3°
Reaches altitude 10° 14:40:16 10° 358° (N) 2,459 5.3 -37.3°
Enters shadow 14:43:37 27° 30° (NNE) 1,558 3.9 -37.4°
